Flag for Germany Weather past 2 weeks in Dietzenbach, Hesse, Germany

Now
69 °F

Overcast.


Feels Like: 69 °F
Forecast: 61 / 75 °F
Wind: 2 mph from East

Location: Frankfurt / M-Flughafen

Current Time: Sep 18, 2014 at 2:04:29 PM

Latest Report: Sep 18, 2014 at 1:00 PM


Visibility: 16 mi

Pressure: 29.88 "Hg

Humidity: 74%

Dew point: 61 °F

Location of DietzenbachLocation

Historic Weather in Dietzenbach — Graph

°F

Dietzenbach temperature yesterday

Maximum temperature yesterday: 76 °F (at 4:00 PM)
Minimum temperature yesterday: 56 °F (at 6:00 AM)
Average temperature yesterday: 65 °F

Past Weeks' High & Low Weather Summary

 TemperatureHumidityPressure
High79 °F (Sep 6, 4:00 PM)97% (Sep 6, 7:00 AM)30.19 "Hg (Sep 6, 7:00 AM)
Low47 °F (Sep 11, 4:00 AM)43% (Sep 9, 6:00 PM)29.85 "Hg (Sep 6, 6:00 PM)
Average64 °F77%30.02 "Hg
* Reported Sep 3 1:00 PM — Sep 18 1:00 PM, Dietzenbach, Weather by CustomWeather, © 2014

Note: Actual official high and low records may vary slightly from our data, if they occured in-between our weather recording intervals... More about our weather records

Advertising

Dietzenbach weather history for previous 24 hours

 ConditionsComfort  
Time TempWeatherWind HumidityBarometerVisibility
1:00 PM
Sep 18
69 °FOvercast.2 mph74%29.88 "Hg16 mi
12:00 PM67 °FOvercast.1 mph79%29.90 "Hg16 mi
11:00 AM65 °FOvercast.3 mph84%29.90 "Hg12 mi
10:00 AM62 °FOvercast.3 mph88%29.89 "Hg12 mi
9:00 AM60 °FOvercast.3 mph92%29.88 "Hg14 mi
8:00 AM60 °FCool.3 mph92%29.88 "HgN/A
7:00 AM60 °FLight rain. Low clouds.3 mph91%29.88 "Hg11 mi
6:00 AM60 °FLight rain. Low clouds.2 mph90%29.88 "Hg14 mi
5:00 AM60 °FLight rain. Overcast.2 mph88%29.88 "Hg16 mi
4:00 AM60 °FOvercast.3 mph88%29.87 "Hg16 mi
3:00 AM59 °FOvercast.2 mph91%29.88 "Hg16 mi
2:00 AM60 °FOvercast.2 mph89%29.88 "Hg16 mi
1:00 AM61 °FOvercast.2 mph89%29.88 "Hg17 mi
12:00 AM62 °FPassing clouds.1 mph87%29.89 "Hg19 mi
10:00 PM
Sep 17
64 °FPassing clouds.2 mph85%29.88 "Hg28 mi
9:00 PM66 °FPassing clouds.2 mph79%29.88 "Hg28 mi
8:00 PM69 °FPassing clouds.1 mph69%29.88 "Hg25 mi
7:00 PM74 °FPartly sunny.1 mph57%29.87 "Hg25 mi
6:00 PM76 °FScattered clouds.2 mph51%29.86 "Hg25 mi
5:00 PM76 °FScattered clouds.3 mph48%29.86 "Hg25 mi
4:00 PM76 °FScattered clouds.2 mph46%29.87 "Hg25 mi
3:00 PM76 °FPassing clouds.2 mph52%29.89 "Hg22 mi
2:00 PM74 °FPassing clouds.2 mph57%29.90 "Hg16 mi
Weather by CustomWeather, © 2014

See weather overviewHow to use our weather pages